Regional Weather Roundup
Issued by NWS

Home | Current Version | Previous Version | Graphics & Text | Print | Product List | Glossary On
Versions: 1 2 3 4 5 6 7 8 9 10 11 12 13 14 15 16 17 18 19 20 21 22 23 24 25 26 27 28 29 30 31 32 33 34 35 36 37 38 39 40 41 42 43 44 45 46 47 48 49 50
000
ASUS43 KBIS 021810
RWRND

NORTH DAKOTA REGIONAL WEATHER ROUNDUP
NATIONAL WEATHER SERVICE BISMARCK ND
100 PM CDT TUE JUN 02 2015

NOTE: "FAIR" INDICATES FEW OR NO CLOUDS BELOW 12,000 FEET WITH NO
SIGNIFICANT WEATHER AND/OR OBSTRUCTIONS TO VISIBILITY.


NDZ001>003-009>011-017-021900-
NORTHWEST NORTH DAKOTA

CITY           SKY/WX    TMP DP  RH WIND       PRES   REMARKS
WILLISTON      RAIN      59  57  93 N9        29.80F FOG
6HR MIN TEMP:  57; 6HR MAX TEMP:  62; 6HR PCP:  0.94;

MINOT          CLOUDY    66  60  81 NE13      29.80S
MINOT AFB      CLOUDY    64  64 100 E13       29.80S
$$

NDZ018>021-031>035-040>046-021900-
SOUTHWEST NORTH DAKOTA

CITY           SKY/WX    TMP DP  RH WIND       PRES   REMARKS
BISMARCK       CLOUDY    74  63  68 NW6       29.75F
6HR MIN TEMP:  60; 6HR MAX TEMP:  74;

DICKINSON      MOSUNNY   73  58  59 MISG      29.78S
GARRISON         N/A     68  62  81 E10       29.78F
6HR MIN TEMP:  59; 6HR MAX TEMP:  68; 6HR PCP:  0.01;

HETTINGER ARPT SUNNY     76  60  57 W9        29.79S
$$

NDZ004>008-012>016-024-026-027-054-021900-
NORTHEAST NORTH DAKOTA

CITY           SKY/WX    TMP DP  RH WIND       PRES   REMARKS
GRAND FORKS    CLOUDY    66  58  75 S7        29.81S
GRND FRKS AFB  CLOUDY    65  57  75 SE6       29.82R
DEVILS LAKE    CLOUDY    66  59  77 E9        29.81S
$$

NDZ022-023-025-028>030-036>039-047>053-021900-
SOUTHEAST NORTH DAKOTA

CITY           SKY/WX    TMP DP  RH WIND       PRES   REMARKS
FARGO          CLOUDY    70  58  65 S31G39    29.78R
6HR MIN TEMP:  61; 6HR MAX TEMP:  71; 6HR PCP: TRACE;

JAMESTOWN      CLOUDY    67  61  81 S8        29.77F
$$



USA.gov is the U.S. government's official web portal to all federal, state and local government web resources and services.